GW1075 Weather Reports


Display with metric or nautical units.
time (UTC)temp
F
wind
direction
speed
MPH
gust
MPH
rain 1hr
in
rain 24hr
in
rain mn
in
humidity
%
barometer
mb
20260509101007 69 311 0.0 2.0 0.00 0.00 0.00 91 1009.7
20260509100507 69 126 0.0 2.0 0.00 0.00 0.00 91 1009.6
20260509100027 69 334 0.0 2.0 0.00 0.00 0.00 91 1009.6
20260509095510 69 323 0.0 2.0 0.00 0.00 0.00 91 1009.5
20260509095007 70 131 0.0 2.0 0.00 0.00 0.00 91 1009.3
20260509094531 69 331 0.0 2.0 0.00 0.00 0.00 91 1009.4
20260509094007 69 100 0.0 2.0 0.00 0.00 0.00 91 1009.1
20260509093506 69 145 1.0 3.0 0.00 0.00 0.00 90 1009.0
20260509093016 69 22 1.0 4.0 0.00 0.00 0.00 90 1009.1
20260509092506 69 332 1.0 5.0 0.00 0.00 0.00 90 1008.5
20260509092007 69 162 1.0 7.0 0.00 0.00 0.00 90 1007.8
20260509091517 69 275 2.0 9.0 0.00 0.00 0.00 90 1007.8
20260509091012 69 138 2.0 10.0 0.00 0.00 0.00 89 1007.6
20260509090508 69 253 2.0 10.0 0.00 0.00 0.00 89 1007.6
20260509090024 69 194 1.0 8.0 0.00 0.00 0.00 89 1007.5
20260509085509 69 181 2.0 8.0 0.00 0.00 0.00 89 1007.4
20260509085010 69 151 2.0 10.0 0.00 0.00 0.00 89 1007.5
20260509084529 69 91 1.0 10.0 0.00 0.00 0.00 88 1008.2
20260509084014 69 157 3.0 7.0 0.00 0.00 0.00 88 1008.5
20260509083509 69 171 2.0 6.0 0.00 0.00 0.00 88 1008.8
20260509083026 70 185 1.0 6.0 0.00 0.00 0.00 87 1008.9
20260509082509 70 172 1.0 5.0 0.00 0.00 0.00 87 1009.2
20260509082007 70 172 2.0 6.0 0.00 0.00 0.00 87 1009.5
20260509081518 70 171 2.0 6.0 0.00 0.00 0.00 86 1009.8
20260509081008 70 173 0.0 2.0 0.00 0.00 0.00 86 1010.1
20260509080510 70 256 1.0 6.0 0.00 0.00 0.00 86 1010.0
20260509080024 70 186 1.0 6.0 0.00 0.00 0.00 86 1010.2
20260509075510 70 262 1.0 2.0 0.00 0.00 0.00 86 1010.3
20260509075011 71 200 0.0 2.0 0.00 0.00 0.00 85 1010.6
20260509074526 71 217 0.0 3.0 0.00 0.00 0.00 85 1010.6
20260509074007 71 138 1.0 3.0 0.00 0.00 0.00 85 1010.8
20260509073507 71 207 1.0 7.0 0.00 0.00 0.00 85 1010.8
20260509073027 71 232 1.0 8.0 0.00 0.00 0.00 86 1011.0
20260509072508 71 266 1.0 8.0 0.00 0.00 0.00 86 1011.2
20260509072008 71 123 1.0 4.0 0.00 0.00 0.00 86 1011.4
20260509071514 70 169 1.0 4.0 0.00 0.00 0.00 87 1011.5
20260509071012 70 313 1.0 4.0 0.00 0.00 0.00 88 1011.5
20260509070508 69 269 0.0 3.0 0.00 0.00 0.00 88 1011.5
20260509070020 69 260 0.0 2.0 0.00 0.00 0.00 88 1011.3
20260509065502 69 263 0.0 2.0 0.00 0.00 0.00 87 1011.2
20260509065002 69 259 0.0 1.0 0.00 0.00 0.00 87 1011.0
20260509064505 69 311 0.0 0.0 0.00 0.00 0.00 87 1010.9
20260509064009 69 311 0.0 0.0 0.00 0.00 0.00 87 1010.9
20260509063504 69 311 0.0 0.0 0.00 0.00 0.00 87 1011.0
20260509063007 69 311 0.0 2.0 0.00 0.00 0.00 87 1011.1
20260509062507 69 311 0.0 2.0 0.00 0.00 0.00 87 1011.3
20260509062006 69 227 0.0 0.0 0.00 0.00 0.00 87 1011.0
20260509061516 69 198 0.0 0.0 0.00 0.00 0.00 86 1011.1
20260509061006 69 198 0.0 0.0 0.00 0.00 0.00 86 1011.3
20260509060506 69 316 0.0 0.0 0.00 0.00 0.00 85 1011.5
20260509060017 70 315 0.0 0.0 0.00 0.00 0.00 85 1011.6
20260509055508 70 315 0.0 0.0 0.00 0.00 0.00 85 1011.7
20260509055008 70 315 0.0 0.0 0.00 0.00 0.00 85 1011.5
20260509054523 70 315 0.0 0.0 0.00 0.00 0.00 85 1011.7
20260509054006 70 316 0.0 0.0 0.00 0.00 0.00 85 1011.8
20260509053504 70 343 0.0 0.0 0.00 0.00 0.00 84 1012.0
20260509053006 70 343 0.0 0.0 0.00 0.00 0.00 84 1011.9
20260509052504 70 245 0.0 2.0 0.00 0.00 0.00 83 1011.8
20260509052004 71 245 0.0 2.0 0.00 0.00 0.00 83 1011.4
20260509051510 71 233 0.0 2.0 0.00 0.00 0.00 82 1011.1
20260509051007 71 217 0.0 2.0 0.00 0.00 0.00 82 1011.0
20260509050504 71 160 0.0 2.0 0.00 0.00 0.00 82 1010.9
20260509050025 71 266 0.0 2.0 0.00 0.00 0.00 81 1010.7
20260509045505 72 148 0.0 2.0 0.00 0.00 0.00 81 1011.0
20260509045010 72 218 0.0 2.0 0.00 0.00 0.00 81 1011.1
20260509044522 72 257 1.0 2.0 0.00 0.00 0.00 81 1010.9
20260509044008 72 295 0.0 2.0 0.00 0.00 0.00 81 1010.8
20260509043510 72 151 0.0 2.0 0.00 0.00 0.00 80 1010.8
20260509043005 72 170 0.0 2.0 0.00 0.00 0.00 80 1010.8
20260509042503 72 184 0.0 3.0 0.00 0.00 0.00 80 1011.0
20260509042005 72 165 1.0 3.0 0.00 0.00 0.00 80 1011.0
20260509041517 72 181 0.0 2.0 0.00 0.00 0.00 79 1011.0
20260509041005 72 175 0.0 2.0 0.00 0.00 0.00 80 1011.3
20260509040510 72 54 0.0 0.0 0.00 0.00 0.00 80 1011.6
20260509040014 72 54 0.0 0.0 0.00 0.00 0.00 80 1011.6
20260509035507 72 49 0.0 0.0 0.00 0.00 0.00 80 1011.6
20260509035009 72 49 0.0 1.0 0.00 0.00 0.00 80 1011.4
20260509034520 72 59 0.0 2.0 0.00 0.00 0.00 79 1011.2
20260509034014 72 73 0.0 2.0 0.00 0.00 0.00 79 1010.9
20260509033509 72 63 0.0 3.0 0.00 0.00 0.00 79 1010.8
20260509033022 72 159 1.0 3.0 0.00 0.00 0.00 79 1010.7
20260509032507 72 182 0.0 2.0 0.00 0.00 0.00 79 1010.9
20260509032013 72 163 0.0 2.0 0.00 0.00 0.00 78 1010.9
20260509031520 72 148 0.0 2.0 0.00 0.00 0.00 78 1010.8
20260509031007 72 162 0.0 2.0 0.00 0.00 0.00 78 1010.7
20260509030508 72 83 0.0 3.0 0.00 0.00 0.00 78 1010.6
20260509030013 72 82 0.0 3.0 0.00 0.00 0.00 78 1010.5
20260509025506 72 169 0.0 3.0 0.00 0.00 0.00 78 1010.5
20260509025006 72 149 0.0 3.0 0.00 0.00 0.00 78 1010.5
20260509024518 72 157 0.0 3.0 0.00 0.00 0.00 78 1010.3
20260509024006 72 153 0.0 3.0 0.00 0.00 0.00 78 1010.1
20260509023507 72 160 1.0 3.0 0.00 0.00 0.00 78 1010.0
20260509023025 72 74 1.0 2.0 0.00 0.00 0.00 78 1009.9
20260509022508 72 139 1.0 5.0 0.00 0.00 0.00 78 1009.9
20260509022010 72 121 1.0 5.0 0.00 0.00 0.00 77 1009.8
20260509021528 72 121 1.0 3.0 0.00 0.00 0.00 77 1009.7
20260509021008 72 141 1.0 4.0 0.00 0.00 0.00 76 1009.6
20260509020510 72 169 1.0 4.0 0.00 0.00 0.00 76 1009.6
20260509020013 72 164 0.0 4.0 0.00 0.00 0.00 76 1009.7
20260509015509 72 159 1.0 4.0 0.00 0.00 0.00 76 1009.8
20260509015008 73 148 1.0 5.0 0.00 0.00 0.00 76 1009.8
20260509014531 72 129 1.0 5.0 0.00 0.00 0.00 75 1009.9
20260509014005 73 284 1.0 6.0 0.00 0.00 0.00 76 1009.9
20260509013509 73 215 0.0 6.0 0.00 0.00 0.00 75 1009.8
20260509013021 73 164 1.0 6.0 0.00 0.00 0.00 75 1009.7
20260509012507 73 122 0.0 2.0 0.00 0.00 0.00 75 1009.8
20260509012007 73 163 0.0 2.0 0.00 0.00 0.00 75 1009.7
20260509011526 73 150 0.0 2.0 0.00 0.00 0.00 76 1009.6
20260509011008 73 103 0.0 2.0 0.00 0.00 0.00 76 1009.5
20260509010510 73 158 0.0 3.0 0.00 0.00 0.00 75 1009.4
20260509010031 73 106 1.0 3.0 0.00 0.00 0.00 75 1009.2
20260509005510 73 231 0.0 3.0 0.00 0.00 0.00 75 1009.1
20260509005009 73 163 1.0 3.0 0.00 0.00 0.00 75 1009.2
20260509004513 73 183 0.0 3.0 0.00 0.00 0.00 75 1009.1
20260509004007 73 112 0.0 4.0 0.00 0.00 0.00 74 1009.1
20260509003509 73 170 1.0 4.0 0.00 0.00 0.00 74 1009.1
20260509003020 73 155 1.0 4.0 0.00 0.00 0.00 73 1009.1
20260509002508 73 128 0.0 4.0 0.00 0.00 0.00 73 1009.2
20260509002009 73 163 1.0 4.0 0.00 0.00 0.00 73 1009.2
20260509001529 73 182 0.0 4.0 0.00 0.00 0.00 72 1009.3
20260509001012 73 116 2.0 4.0 0.00 0.00 0.00 72 1009.3
20260509000511 73 148 1.0 6.0 0.00 0.00 0.00 73 1009.3
20260509000025 73 170 1.0 6.0 0.00 0.00 0.00 72 1009.3
20260508235512 73 162 2.0 4.0 0.00 0.00 0.00 71 1009.4
20260508235004 74 128 2.0 4.0 0.00 0.00 0.00 71 1009.5
20260508234512 74 140 1.0 5.0 0.00 0.00 0.00 72 1009.5
20260508234009 74 279 1.0 5.0 0.00 0.00 0.00 71 1009.6
20260508233509 74 134 1.0 3.0 0.00 0.00 0.00 71 1009.6
20260508233019 74 70 0.0 6.0 0.00 0.00 0.00 70 1009.6
20260508232509 74 58 2.0 6.0 0.00 0.00 0.00 70 1009.6
20260508232009 74 102 1.0 3.0 0.00 0.00 0.00 70 1009.5
20260508231503 75 86 1.0 4.0 0.00 0.00 0.00 68 1009.5
20260508231003 75 322 0.0 4.0 0.00 0.00 0.00 69 1009.5
20260508230503 75 121 1.0 5.0 0.00 0.00 0.00 68 1009.5
20260508230006 75 182 1.0 5.0 0.00 0.00 0.00 68 1009.5
20260508225504 76 97 2.0 5.0 0.00 0.00 0.00 67 1009.6
20260508225006 76 146 1.0 5.0 0.00 0.00 0.00 66 1009.6
20260508224507 77 328 2.0 8.0 0.00 0.00 0.00 66 1009.5
20260508224003 76 254 1.0 8.0 0.00 0.00 0.00 66 1009.6
20260508223504 76 166 3.0 8.0 0.00 0.00 0.00 65 1009.6
20260508223013 76 253 1.0 7.0 0.00 0.00 0.00 65 1009.6
20260508222508 76 52 2.0 8.0 0.00 0.00 0.00 65 1009.6
20260508222010 76 139 2.0 8.0 0.00 0.00 0.00 65 1009.6
20260508221519 76 178 3.0 8.0 0.00 0.00 0.00 65 1009.5
20260508221007 75 115 2.0 4.0 0.00 0.00 0.00 66 1009.7
20260508220504 75 35 1.0 8.0 0.00 0.00 0.00 67 1009.8
20260508220011 75 159 1.0 8.0 0.00 0.00 0.00 65 1009.7
20260508215504 76 175 3.0 6.0 0.00 0.00 0.00 64 1009.7
20260508215005 76 175 2.0 6.0 0.00 0.00 0.00 64 1009.7
20260508214508 76 306 1.0 6.0 0.00 0.00 0.00 63 1009.8
20260508214003 77 147 2.0 6.0 0.00 0.00 0.00 62 1009.8
20260508213503 77 136 1.0 6.0 0.00 0.00 0.00 66 1009.8
20260508213011 77 99 1.0 6.0 0.00 0.00 0.00 66 1009.6
20260508212507 76 197 2.0 6.0 0.00 0.00 0.00 66 1009.4
20260508212006 76 161 1.0 6.0 0.00 0.00 0.00 66 1009.8
20260508211523 75 192 1.0 6.0 0.00 0.00 0.00 67 1009.9
20260508211008 74 111 1.0 4.0 0.00 0.00 0.00 69 1009.8
20260508210508 73 173 1.0 6.0 0.00 0.00 0.00 72 1009.7
20260508210022 72 112 2.0 5.0 0.00 0.00 0.00 70 1010.1
20260508205509 72 263 1.0 6.0 0.00 0.00 0.00 69 1010.6
20260508205003 73 75 1.0 6.0 0.00 0.00 0.00 68 1010.9
20260508204505 73 158 1.0 3.0 0.00 0.00 0.00 68 1011.1
20260508204003 73 155 1.0 3.0 0.00 0.00 0.00 68 1011.3
20260508203503 73 95 0.0 4.0 0.00 0.00 0.00 68 1011.4
20260508203010 73 270 1.0 4.0 0.00 0.00 0.00 68 1011.7
20260508202505 73 269 1.0 4.0 0.00 0.00 0.00 68 1011.7
20260508202007 73 242 1.0 6.0 0.00 0.00 0.00 67 1011.8
20260508201516 73 179 1.0 6.0 0.00 0.00 0.00 67 1011.7
20260508201007 74 265 1.0 6.0 0.00 0.00 0.00 66 1011.8
20260508200508 74 159 1.0 6.0 0.00 0.00 0.00 67 1011.7
20260508200019 74 288 1.0 8.0 0.00 0.00 0.00 66 1011.8
20260508195509 75 236 2.0 8.0 0.00 0.00 0.00 65 1011.6
20260508195011 75 209 0.0 6.0 0.00 0.00 0.00 66 1011.5
20260508194526 75 130 2.0 6.0 0.00 0.00 0.00 65 1011.5
20260508194010 75 275 1.0 10.0 0.00 0.00 0.00 64 1011.5
20260508193504 75 134 3.0 10.0 0.00 0.00 0.00 65 1011.7
20260508193008 75 161 2.0 6.0 0.00 0.00 0.00 65 1011.7
20260508192504 75 189 1.0 6.0 0.00 0.00 0.00 65 1011.8
20260508192005 76 102 1.0 6.0 0.00 0.00 0.00 64 1011.8
20260508191516 76 166 2.0 7.0 0.00 0.00 0.00 64 1011.9
20260508191007 76 178 2.0 7.0 0.00 0.00 0.00 63 1011.9
20260508190506 76 5 2.0 7.0 0.00 0.00 0.00 62 1012.0
20260508190016 76 123 3.0 10.0 0.00 0.00 0.00 64 1012.0
20260508185506 76 153 4.0 10.0 0.00 0.00 0.00 64 1012.0
20260508185009 76 179 2.0 10.0 0.00 0.00 0.00 63 1012.1
20260508184526 76 289 2.0 10.0 0.00 0.00 0.00 61 1012.1
20260508184011 77 105 2.0 6.0 0.00 0.00 0.00 62 1012.1
20260508183512 77 211 1.0 6.0 0.00 0.00 0.00 61 1012.3
20260508183026 77 217 2.0 9.0 0.00 0.00 0.00 61 1012.3
20260508182504 78 257 3.0 9.0 0.00 0.00 0.00 58 1012.4
20260508182010 79 154 2.0 6.0 0.00 0.00 0.00 60 1012.2
20260508181510 79 164 1.0 8.0 0.00 0.00 0.00 62 1012.3
20260508181007 78 170 1.0 8.0 0.00 0.00 0.00 59 1012.4
20260508180509 78 180 3.0 7.0 0.00 0.00 0.00 62 1012.6
20260508180016 78 191 3.0 6.0 0.00 0.00 0.00 59 1012.7
20260508175508 78 94 2.0 6.0 0.00 0.00 0.00 61 1012.8
20260508175008 78 162 2.0 6.0 0.00 0.00 0.00 61 1012.9
20260508174530 77 175 2.0 7.0 0.00 0.00 0.00 60 1013.0
20260508174011 77 13 3.0 7.0 0.00 0.00 0.00 62 1013.1
20260508173509 76 260 1.0 6.0 0.00 0.00 0.00 62 1013.1
20260508173024 76 218 1.0 10.0 0.00 0.00 0.00 64 1013.2
20260508172510 76 171 3.0 10.0 0.00 0.00 0.00 62 1013.3
20260508172011 76 256 3.0 9.0 0.00 0.00 0.00 59 1013.4
20260508171526 76 213 2.0 5.0 0.00 0.00 0.00 61 1013.3
20260508171010 76 190 3.0 5.0 0.00 0.00 0.00 61 1013.3
20260508170506 76 248 1.0 9.0 0.00 0.00 0.00 61 1013.5
20260508170010 76 300 3.0 9.0 0.00 0.00 0.00 65 1013.7
20260508165506 74 269 1.0 6.0 0.00 0.00 0.00 63 1013.9
20260508165007 74 231 2.0 6.0 0.00 0.00 0.00 63 1014.1
20260508164517 74 168 2.0 5.0 0.00 0.00 0.00 64 1014.3
20260508164011 74 299 1.0 5.0 0.00 0.00 0.00 63 1014.3
20260508163508 74 290 1.0 6.0 0.00 0.00 0.00 63 1014.4
20260508163033 73 165 2.0 6.0 0.00 0.00 0.00 63 1014.4
20260508162504 73 188 1.0 9.0 0.00 0.00 0.00 62 1014.4
20260508162009 74 222 2.0 9.0 0.00 0.00 0.00 60 1014.5
20260508161508 74 116 1.0 6.0 0.00 0.00 0.00 64 1014.5
20260508161004 74 170 2.0 6.0 0.00 0.00 0.00 64 1014.6
20260508160506 73 77 1.0 8.0 0.00 0.00 0.00 62 1014.6
20260508160012 73 204 1.0 9.0 0.00 0.00 0.00 63 1014.7
20260508155507 72 175 3.0 8.0 0.00 0.00 0.00 63 1014.7
20260508155008 72 138 1.0 5.0 0.00 0.00 0.00 64 1014.7
20260508154517 71 304 2.0 5.0 0.00 0.00 0.00 64 1014.9
20260508154009 71 152 2.0 6.0 0.00 0.00 0.00 64 1015.0
20260508153509 70 132 1.0 6.0 0.00 0.00 0.00 65 1015.0
20260508153022 70 172 1.0 7.0 0.00 0.00 0.00 64 1015.0
20260508152512 71 171 3.0 7.0 0.00 0.00 0.00 65 1015.0
20260508152010 70 157 1.0 7.0 0.00 0.00 0.00 66 1015.2
20260508151527 69 128 2.0 7.0 0.00 0.00 0.00 67 1015.1
20260508151007 69 113 1.0 4.0 0.00 0.00 0.00 66 1015.2
20260508150505 69 165 1.0 4.0 0.00 0.00 0.00 67 1015.1
20260508150009 68 169 0.0 5.0 0.00 0.00 0.00 66 1015.1
20260508145509 68 194 1.0 8.0 0.00 0.00 0.00 67 1015.1
20260508145005 68 185 2.0 8.0 0.00 0.00 0.00 66 1015.0
20260508144512 68 202 2.0 7.0 0.00 0.00 0.00 68 1015.0
20260508144008 67 142 1.0 4.0 0.00 0.00 0.00 68 1015.0
20260508143508 67 143 2.0 4.0 0.00 0.00 0.00 69 1015.0
20260508143024 67 130 1.0 4.0 0.00 0.00 0.00 68 1015.2
20260508142512 67 70 1.0 6.0 0.00 0.00 0.00 69 1015.3
20260508142011 67 166 2.0 7.0 0.00 0.00 0.00 68 1015.1
20260508141522 67 179 2.0 7.0 0.00 0.00 0.00 68 1015.2
20260508141009 67 92 1.0 6.0 0.00 0.00 0.00 67 1015.3
20260508140509 68 199 2.0 6.0 0.00 0.00 0.00 67 1015.4
20260508140016 68 184 2.0 6.0 0.00 0.00 0.00 68 1015.3
20260508135504 67 187 2.0 6.0 0.00 0.00 0.00 68 1015.3
20260508135007 66 107 1.0 5.0 0.00 0.00 0.00 70 1015.3
20260508134525 66 178 2.0 5.0 0.00 0.00 0.00 70 1015.4
20260508134007 66 280 2.0 5.0 0.00 0.00 0.00 71 1015.4
20260508133507 66 201 2.0 4.0 0.00 0.00 0.00 73 1015.2
20260508133016 66 149 1.0 4.0 0.00 0.00 0.00 74 1015.2
20260508132513 65 162 1.0 4.0 0.00 0.00 0.00 76 1015.2
20260508132006 64 146 1.0 4.0 0.00 0.00 0.00 77 1015.2
20260508131520 64 146 1.0 4.0 0.00 0.00 0.00 80 1015.3
20260508131011 63 176 1.0 4.0 0.00 0.00 0.00 81 1015.2
20260508130510 63 129 0.0 2.0 0.00 0.00 0.00 82 1015.3
20260508130026 62 165 0.0 2.0 0.00 0.00 0.00 83 1015.6
20260508125515 62 129 0.0 2.0 0.00 0.00 0.00 84 1015.6
20260508125010 62 113 0.0 2.0 0.00 0.00 0.00 85 1015.5
20260508124512 61 105 0.0 2.0 0.00 0.00 0.00 86 1015.6
20260508124009 60 162 0.0 2.0 0.00 0.00 0.00 86 1015.6
20260508123505 60 80 0.0 2.0 0.00 0.00 0.00 85 1015.6
20260508123014 60 107 0.0 2.0 0.00 0.00 0.00 85 1015.5
20260508122506 60 66 0.0 2.0 0.00 0.00 0.00 84 1015.3
20260508122010 60 73 0.0 2.0 0.00 0.00 0.00 85 1015.4
20260508121531 60 72 0.0 2.0 0.00 0.00 0.00 85 1015.2
20260508121008 60 96 0.0 1.0 0.00 0.00 0.00 85 1015.3
20260508120507 60 51 0.0 1.0 0.00 0.00 0.00 86 1015.5
20260508120023 60 115 0.0 0.0 0.00 0.00 0.00 86 1015.6
20260508115509 60 75 0.0 0.0 0.00 0.00 0.00 86 1015.6
20260508115010 60 126 0.0 0.0 0.00 0.00 0.00 86 1015.6
20260508114527 60 126 0.0 0.0 0.00 0.00 0.00 86 1015.6
20260508114010 60 93 0.0 0.0 0.00 0.00 0.00 85 1015.6
20260508113508 60 119 0.0 0.0 0.00 0.00 0.00 85 1015.6
20260508113016 60 126 0.0 0.0 0.00 0.00 0.00 85 1015.5
20260508112507 60 126 0.0 0.0 0.00 0.00 0.00 85 1015.7
20260508112010 60 132 0.0 0.0 0.00 0.00 0.00 84 1015.7
20260508111518 60 151 0.0 0.0 0.00 0.00 0.00 85 1015.7
20260508111008 60 246 0.0 0.0 0.00 0.00 0.00 85 1016.1
20260508110507 60 246 0.0 0.0 0.00 0.00 0.00 85 1016.0
20260508110023 59 246 0.0 0.0 0.00 0.00 0.00 85 1015.9
20260508105511 59 246 0.0 0.0 0.00 0.00 0.00 85 1015.9
20260508105009 59 246 0.0 0.0 0.00 0.00 0.00 84 1015.6
20260508104526 59 246 0.0 0.0 0.00 0.00 0.00 84 1015.4
20260508104007 59 246 0.0 0.0 0.00 0.00 0.00 83 1015.2
20260508103510 60 246 0.0 0.0 0.00 0.00 0.00 82 1014.9
20260508103035 60 245 0.0 0.0 0.00 0.00 0.00 82 1014.7
20260508102506 60 271 0.0 0.0 0.00 0.00 0.00 82 1014.5
20260508102007 60 271 0.0 0.0 0.00 0.00 0.00 82 1014.4
20260508101516 60 208 0.0 2.0 0.00 0.00 0.00 83 1014.4